EW9223 Weather Reports


Display with metric or nautical units.
time (UTC)temp
F
wind
direction
speed
MPH
gust
MPH
rain 1hr
in
rain 24hr
in
rain mn
in
humidity
%
barometer
mb
20181113041553 53 0.0 0.0 0.00 0.00 0.00 84 1019.8
20181113040244 53 0.0 0.0 0.00 0.00 0.00 84 1019.6
20181113034534 53 0.0 0.0 0.00 0.00 0.00 84 1019.6
20181113033044 53 0.0 0.0 0.00 0.00 0.00 83 1019.4
20181113031658 53 0.0 0.0 0.00 0.00 0.00 83 1019.3
20181113030136 54 0.0 0.0 0.00 0.00 0.00 83 1019.2
20181113030007 54 0.0 0.0 0.00 0.00 0.00 83 1019.1
20181113024531 54 0.0 0.0 0.00 0.00 0.00 83 1018.9
20181113023055 54 0.0 0.0 0.00 0.00 0.00 83 1019.0
20181113021719 54 0.0 0.0 0.00 0.00 0.00 83 1018.9
20181113014600 53 0.0 0.0 0.00 0.00 0.00 83 1018.2
20181113013225 53 0.0 0.0 0.00 0.00 0.00 83 1018.1
20181113011543 54 0.0 0.0 0.00 0.00 0.00 83 1017.8
20181113010112 54 0.0 0.0 0.00 0.00 0.00 83 1017.7
20181113004533 54 0.0 0.0 0.00 0.00 0.00 83 1017.6
20181113003047 54 0.0 0.0 0.00 0.00 0.00 83 1017.5
20181113001618 54 0.0 0.0 0.00 0.00 0.00 83 1017.3
20181113000134 54 0.0 0.0 0.00 0.00 0.00 83 1017.2
20181112234519 54 0.0 0.0 0.00 0.00 0.00 83 1017.1
20181112233045 54 0.0 0.0 0.00 0.00 0.00 83 1017.0
20181112231625 54 0.0 0.0 0.00 0.00 0.00 82 1016.8
20181112230143 54 0.0 0.0 0.00 0.00 0.00 83 1016.5
20181112224531 54 0.0 0.0 0.00 0.00 0.00 83 1016.4
20181112223113 54 0.0 0.0 0.00 0.00 0.00 83 1016.4
20181112221637 54 0.0 0.0 0.00 0.00 0.00 82 1016.4
20181112220017 54 0.0 0.0 0.00 0.00 0.00 83 1016.1
20181112214553 54 0.0 0.0 0.00 0.00 0.00 83 1016.1
20181112213142 54 0.0 0.0 0.00 0.00 0.00 82 1016.0
20181112211511 54 0.0 0.0 0.00 0.00 0.00 82 1016.0
20181112210028 54 0.0 0.0 0.00 0.00 0.00 82 1016.0
20181112204635 55 0.0 0.0 0.00 0.00 0.00 82 1015.8
20181112203150 55 0.0 0.0 0.00 0.00 0.00 82 1015.7
20181112201505 55 0.0 0.0 0.00 0.00 0.00 82 1015.6
20181112200035 55 0.0 0.0 0.00 0.00 0.00 81 1015.5
20181112194539 55 0.0 0.0 0.00 0.00 0.00 81 1015.3
20181112193220 55 0.0 0.0 0.00 0.00 0.00 81 1015.2
20181112191502 55 0.0 0.0 0.00 0.00 0.00 80 1015.1
20181112190132 55 0.0 0.0 0.00 0.00 0.00 79 1015.0
20181112184604 56 0.0 0.0 0.00 0.00 0.00 79 1015.0
20181112183013 55 0.0 0.0 0.00 0.00 0.00 78 1014.7
20181112181531 55 0.0 0.0 0.00 0.00 0.00 78 1014.5
20181112180059 55 0.0 0.0 0.00 0.00 0.00 77 1014.5
20181112174711 55 0.0 0.0 0.00 0.00 0.00 78 1014.4
20181112174506 55 0.0 0.0 0.00 0.00 0.00 78 1014.3
20181112173031 56 0.0 0.0 0.00 0.00 0.00 79 1014.2
20181112171549 56 0.0 0.0 0.00 0.00 0.00 79 1014.0
20181112170111 56 0.0 0.0 0.00 0.00 0.00 79 1013.8
20181112164524 56 0.0 0.0 0.00 0.00 0.00 78 1013.5
20181112163028 56 0.0 0.0 0.00 0.00 0.00 79 1013.4
20181112160219 57 0.0 0.0 0.00 0.00 0.00 80 1013.3
20181112153017 58 0.0 0.0 0.00 0.00 0.00 78 1013.1
20181112151555 58 0.0 0.0 0.00 0.00 0.00 78 1013.2
20181112150331 58 0.0 0.0 0.00 0.00 0.00 77 1013.0
20181112144538 58 0.0 0.0 0.00 0.00 0.00 75 1012.8
20181112143051 58 0.0 0.0 0.00 0.00 0.00 73 1012.7
20181112141504 55 0.0 0.0 0.00 0.00 0.00 77 1012.5
20181112140029 55 0.0 0.0 0.00 0.00 0.00 79 1012.4
20181112134713 56 0.0 0.0 0.00 0.00 0.00 81 1012.4
20181112133138 57 0.0 0.0 0.00 0.00 0.00 80 1012.3
20181112131520 58 0.0 0.0 0.00 0.00 0.00 77 1012.2
20181112130107 59 0.0 0.0 0.00 0.00 0.00 77 1012.2
20181112124540 59 0.0 0.0 0.00 0.00 0.00 77 1012.1
20181112123109 59 0.0 0.0 0.00 0.00 0.00 78 1012.2
20181112121533 59 0.0 0.0 0.00 0.00 0.00 79 1012.3
20181112120103 59 0.0 0.0 0.00 0.00 0.00 80 1012.1
20181112114715 58 0.0 0.0 0.00 0.00 0.00 80 1012.2
20181112113256 58 0.0 0.0 0.00 0.00 0.00 79 1012.1
20181112113001 58 0.0 0.0 0.00 0.00 0.00 79 1012.1
20181112111552 59 0.0 0.0 0.00 0.00 0.00 78 1012.1
20181112110200 61 0.0 0.0 0.00 0.00 0.00 73 1012.1
20181112104510 68 0.0 0.0 0.00 0.00 0.00 72 1012.0
20181112103133 67 0.0 0.0 0.00 0.00 0.00 73 1011.8
20181112101710 67 0.0 0.0 0.00 0.00 0.00 73 1011.6
20181112101505 67 0.0 0.0 0.00 0.00 0.00 73 1011.6
20181112100112 66 0.0 0.0 0.00 0.00 0.00 73 1011.5
20181112094546 65 0.0 0.0 0.00 0.00 0.00 72 1011.4
20181112093059 64 0.0 0.0 0.00 0.00 0.00 72 1011.5
20181112091615 64 0.0 0.0 0.00 0.00 0.00 71 1011.6
20181112090015 64 0.0 0.0 0.00 0.00 0.00 71 1011.5
20181112084709 64 0.0 0.0 0.00 0.00 0.00 71 1011.4
20181112083157 63 0.0 0.0 0.00 0.00 0.00 71 1011.2
20181112081547 63 0.0 0.0 0.00 0.00 0.00 72 1011.1
20181112080123 63 0.0 0.0 0.00 0.00 0.00 72 1010.8
20181112074526 63 0.0 0.0 0.00 0.00 0.00 72 1010.7
20181112073112 63 0.0 0.0 0.00 0.00 0.00 71 1010.4
20181112071642 63 0.0 0.0 0.00 0.00 0.00 71 1010.2
20181112070150 63 0.0 0.0 0.00 0.00 0.00 71 1009.9
20181112064536 63 0.0 0.0 0.00 0.00 0.00 70 1009.7
20181112063109 63 0.0 0.0 0.00 0.00 0.00 70 1009.4
20181112061630 63 0.0 0.0 0.00 0.00 0.00 70 1009.4
20181112060043 63 0.0 0.0 0.00 0.00 0.00 70 1009.0
20181112054540 63 0.0 0.0 0.00 0.00 0.00 70 1008.8
20181112053145 63 0.0 0.0 0.00 0.00 0.00 70 1008.5
20181112051515 63 0.0 0.0 0.00 0.00 0.00 70 1008.5
20181112050037 63 0.0 0.0 0.00 0.00 0.00 70 1008.3
20181112044714 63 0.0 0.0 0.00 0.00 0.00 70 1008.1
20181112043005 63 0.0 0.0 0.00 0.00 0.00 70 1008.0